Regional Weather Roundup
Issued by NWS

Home | Current Version | Previous Version | Graphics & Text | Print | Product List | Glossary On
Versions: 1 2 3 4 5 6 7 8 9 10 11 12 13 14 15 16 17 18 19 20 21 22 23 24 25 26 27 28 29 30 31 32 33 34 35 36 37 38 39 40 41 42 43 44 45 46 47 48 49 50
719
ASUS45 KABQ 061801
RWRNM
NEW MEXICO REGIONAL WEATHER ROUNDUP
NATIONAL WEATHER SERVICE ALBUQUERQUE NM
1100 AM MST SAT FEB 06 2016

NOTE: "FAIR" MEANS FEW OR NO CLOUDS BELOW 12,000 FEET AGL WITH NO
       SIGNIFICANT WEATHER OR OBSTRUCTIONS TO VISION.

      THIS PRODUCT IS RELEASED AS TWO VERSIONS.  ONE VERSION NEAR
      THE TOP OF THE HOUR CONTAINING PRELIMINARY DATA FROM ALBUQUERQUE
      AND OTHER STATIONS.  A FINAL VERSION WITH ADDITIONAL DATA IS
      ISSUED ABOUT 10 MINUTES AFTER THE HOUR.

NMZ501-503-504-510>518-061900-
NORTHWEST PLATEAU/NORTHCENTRAL MOUNTAINS

CITY           SKY/WX    TMP DP  RH WIND       PRES   REMARKS
FARMINGTON     SUNNY     27  15  61 CALM      30.52F
6HR MIN TEMP:  10; 6HR MAX TEMP:  27;

SANTA FE       SUNNY     33   8  35 NW15      30.44F WCI  23
6HR MIN TEMP:  13; 6HR MAX TEMP:  33;

TAOS           SUNNY     27   9  46 N9        30.46S WCI  17

$$
NMZ402-403-502-505>509-061900-
WESTCENTRAL MOUNTAINS/SOUTHWEST MOUNTAINS

CITY           SKY/WX    TMP DP  RH WIND       PRES   REMARKS
GALLUP         SUNNY     32  13  45 CALM      30.50F
6HR MIN TEMP:   6; 6HR MAX TEMP:  32;

GRANTS         SUNNY     37   7  29 NW9       30.50F WCI  30
SILVER CITY      N/A     45   0  15 S6        30.49S

$$
NMZ407-409-411-412-061900-
SOUTHERN DESERTS

CITY           SKY/WX    TMP DP  RH WIND       PRES   REMARKS
DEMING         SUNNY     46   6  19 E8        30.49S
6HR MIN TEMP:  16; 6HR MAX TEMP:  46;

HOLLOMAN AFB   SUNNY     46   8  21 NW15      30.45F
ALAMOGORDO     SUNNY     48   5  17 NW13      30.45F
T OR C         SUNNY     41   8  25 N5        30.47F
6HR MIN TEMP:  19; 6HR MAX TEMP:  41;


$$
NMZ519>523-061900-
CENTRAL VALLEYS/CENTRAL HIGHLANDS

CITY           SKY/WX    TMP DP  RH WIND       PRES   REMARKS
ALBUQUERQUE    SUNNY     39  12  33 N7        30.49F WCI  34
6HR MIN TEMP:  22; 6HR MAX TEMP:  39;

DOUBLE EAGLE   SUNNY     37  10  32 NW7       30.49F WCI  32
MORIARTY ARPT  FAIR      39  11  30 NW16      30.43S WCI  30
6HR MIN TEMP:  13; 6HR MAX TEMP:  39;

CLINES CORNERS SUNNY     30  13  49 NW28G37   30.35R WCI  15
6HR MIN TEMP:  16; 6HR MAX TEMP:  30;

BELEN          FAIR      38  10  32 N8        30.50F WCI  32
6HR MIN TEMP:  13; 6HR MAX TEMP:  38;

SOCORRO        NOT AVBL

$$
NMZ524>526-539-540-061900-
SOUTHCENTRAL MOUNTAINS

CITY           SKY/WX    TMP DP  RH WIND       PRES   REMARKS
RUIDOSO          N/A     45   0  15 NW17G25   30.42S

$$
NMZ527>531-061900-
NORTHEAST HIGHLANDS/NORTHEAST PLAINS

CITY           SKY/WX    TMP DP  RH WIND       PRES   REMARKS
LAS VEGAS      SUNNY     40   5  23 S9        30.32S WCI  34
6HR MIN TEMP:  12; 6HR MAX TEMP:  40;

RATON          SUNNY     39   9  29 CALM      30.28F
6HR MIN TEMP:   6; 6HR MAX TEMP:  39;

CLAYTON        SUNNY     51   1  13 SW8       30.29F
6HR MIN TEMP:  18; 6HR MAX TEMP:  51;


$$
NMZ532>537-061900-
EASTCENTRAL PLAINS

CITY           SKY/WX    TMP DP  RH WIND       PRES   REMARKS
TUCUMCARI      SUNNY     44  17  33 VRB5      30.34F
6HR MIN TEMP:  12; 6HR MAX TEMP:  44;

CANNON AFB     NOT AVBL
CLOVIS AIRPORT SUNNY     43  18  36 S9        30.37F

$$
NMZ028-029-538-061900-
SOUTHEAST PLAINS

CITY           SKY/WX    TMP DP  RH WIND       PRES   REMARKS
ROSWELL        SUNNY     46  11  24 SE7       30.40F
6HR MIN TEMP:  15; 6HR MAX TEMP:  46;

ARTESIA        SUNNY     48   9  20 NE3       30.41F
CARLSBAD       SUNNY     47  15  27 N6        30.41F
6HR MIN TEMP:  18; 6HR MAX TEMP:  47;

HOBBS          SUNNY     50  10  20 SW10G17   30.43S


$$




USA.gov is the U.S. government's official web portal to all federal, state and local government web resources and services.